QPF
0.00 0.00 0.00 0.00 0.01 0.00 0.00 0.01 0.01 0.00 0.00 0.01 0.01 0.01 0.02 0.01 0.02 0.02 0.01 0.00 0.01 0.01
0.00 0.00 0.00 0.00 0.00 0.00 0.00 0.00 0.00 0.00 0.00 0.00 0.01 0.01 0.01 0.02 0.01 0.01 0.01 0.01 0.01 0.00
0.00 0.00 0.00 0.00 0.00 0.00 0.00 0.00 0.00 0.00 0.00 0.00 0.01 0.00 0.01 0.02 0.02 0.01 0.00 0.01 0.00 0.00
0.00 0.00 0.00 0.00 0.00 0.00 0.00 0.00 0.00 0.00 0.00 0.00 0.00 0.00 0.01 0.01 0.01 0.01 0.00 0.01 0.01 0.01
0.00 0.00 0.00 0.00 0.00 0.00 0.00 0.00 0.00 0.00 0.00 0.00 0.00 0.00 0.00 0.01 0.00 0.01 0.01 0.01 0.01 0.01
0.00 0.00 0.00 0.00 0.00 0.00 0.00 0.00 0.00 0.00 0.00 0.00 0.01 0.00 0.00 0.01 0.01 0.00 0.00 0.00 0.01 0.02
0.00 0.00 0.00 0.00 0.00 0.00 0.00 0.00 0.00 0.00 0.00 0.00 0.00 0.00 0.00 0.00 0.01 0.00 0.00 0.01 0.01 0.01
0.00 0.00 0.00 0.00 0.00 0.00 0.00 0.00 0.00 0.00 0.00 0.00 0.02 0.02 0.01 0.00 0.00 0.00 0.00 0.00 0.00 0.01
0.00 0.00 0.00 0.00 0.00 0.00 0.00 0.00 0.00 0.00 0.00 0.00 0.02 0.04 0.03 0.01 0.01 0.00 0.00 0.00 0.00 0.00
0.00 0.00 0.00 0.00 0.00 0.00 0.00 0.00 0.00 0.00 0.00 0.00 0.01 0.02 0.01 0.00 0.00 0.00 0.00 0.01 0.01 0.00
0.00 0.00 0.00 0.00 0.00 0.00 0.00 0.00 0.00 0.00 0.00 0.00 0.01 0.01 0.00 0.00 0.00 0.00 0.00 0.00 0.01 0.01
0.00 0.00 0.00 0.00 0.00 0.00 0.00 0.00 0.00 0.00 0.00 0.00 0.00 0.00 0.00 0.00 0.00 0.00 0.00 0.00 0.01 0.01
0.00 0.00 0.00 0.00 0.00 0.00 0.00 0.00 0.00 0.00 0.00 0.00 0.00 0.00 0.00 0.00 0.00 0.00 0.00 0.00 0.00 0.03
0.00 0.00 0.00 0.00 0.00 0.00 0.00 0.00 0.00 0.00 0.00 0.00 0.00 0.00 0.00 0.00 0.00 0.00 0.00 0.00 0.00 0.00
MSLP
1021.23 1020.53 1020.05 1019.36 1018.56 1017.55 1016.64 1015.78 1014.94 1014.23 1013.45 1012.64 1011.84 1011.05 1010.56 1010.54 1010.45 1010.57 1010.51 1010.75 1010.88 1010.89
1021.09 1020.44 1019.84 1019.34 1018.34 1017.34 1016.45 1015.60 1014.69 1014.12 1013.39 1012.52 1011.67 1011.10 1010.35 1010.19 1010.17 1009.94 1010.10 1010.22 1010.32 1010.68
1021.18 1020.50 1019.81 1019.12 1018.20 1017.18 1016.20 1015.38 1014.37 1013.84 1013.05 1012.27 1011.52 1010.86 1010.33 1009.99 1009.77 1009.70 1010.11 1010.10 1010.08 1010.32
1021.37 1020.76 1019.85 1018.87 1018.13 1017.18 1016.20 1015.30 1014.15 1013.56 1012.63 1011.65 1011.01 1010.60 1010.27 1009.69 1009.53 1009.44 1009.78 1009.60 1010.05 1010.01
1021.75 1021.11 1020.07 1018.95 1018.19 1017.35 1016.37 1015.39 1014.41 1013.56 1012.44 1011.10 1010.18 1010.45 1010.43 1009.88 1009.39 1009.32 1009.36 1009.36 1009.39 1009.53
1021.82 1021.14 1020.33 1019.23 1018.46 1017.64 1016.69 1015.67 1014.76 1013.88 1013.10 1011.84 1010.90 1010.58 1010.72 1010.21 1009.71 1009.56 1009.55 1009.64 1009.42 1009.18
1021.86 1021.07 1020.51 1019.61 1018.85 1017.95 1017.07 1016.09 1015.27 1014.60 1013.87 1012.91 1012.36 1012.10 1011.81 1011.35 1010.98 1010.63 1010.48 1010.06 1009.55 1009.20
1022.15 1021.17 1020.57 1020.03 1019.36 1018.23 1017.49 1016.62 1015.87 1015.22 1014.55 1014.05 1013.13 1012.55 1012.52 1012.28 1011.91 1011.55 1011.13 1010.73 1010.31 1009.46
1022.32 1021.34 1020.70 1020.14 1019.55 1018.80 1017.86 1017.11 1016.37 1015.74 1015.18 1014.85 1013.84 1013.22 1013.01 1012.88 1012.60 1012.04 1011.39 1011.03 1010.58 1009.95
1022.42 1021.75 1021.07 1020.33 1019.72 1019.30 1018.30 1017.66 1016.99 1016.41 1015.84 1015.35 1014.77 1013.94 1013.59 1013.26 1012.92 1012.81 1012.30 1011.58 1010.60 1010.32
1022.60 1021.96 1021.47 1020.68 1019.86 1019.35 1019.00 1018.52 1017.72 1017.06 1016.49 1015.84 1015.55 1014.62 1014.22 1013.65 1013.16 1012.78 1012.42 1012.18 1011.33 1010.49
1022.88 1022.20 1021.60 1021.13 1020.24 1019.72 1019.24 1018.76 1018.28 1017.80 1017.13 1016.49 1015.84 1014.94 1014.56 1014.01 1013.50 1013.16 1012.76 1012.24 1011.89 1011.38
1023.14 1022.55 1021.89 1021.45 1021.01 1020.09 1019.47 1019.04 1018.38 1018.10 1017.84 1017.21 1016.51 1015.74 1014.95 1014.51 1014.08 1013.62 1013.27 1012.98 1012.47 1011.86
1023.23 1022.71 1022.30 1021.63 1021.20 1020.28 1019.68 1019.13 1018.77 1018.29 1017.98 1017.70 1016.94 1016.40 1015.68 1015.11 1014.54 1014.13 1013.70 1013.35 1013.18 1012.84
Thickness
5397 5385 5370 5356 5343 5337 5333 5332 5334 5336 5341 5351 5361 5372 5379 5382 5385 5387 5390 5389 5389 5390
5396 5384 5370 5354 5343 5338 5333 5331 5332 5332 5337 5346 5357 5365 5375 5379 5381 5386 5386 5386 5385 5380
5395 5383 5370 5357 5347 5342 5338 5334 5335 5334 5339 5348 5357 5366 5372 5377 5382 5384 5380 5380 5376 5372
5394 5383 5373 5364 5354 5346 5343 5341 5343 5341 5347 5356 5363 5369 5373 5380 5382 5382 5376 5374 5365 5361
5393 5384 5375 5369 5360 5352 5348 5347 5349 5350 5357 5368 5375 5373 5373 5378 5382 5380 5376 5372 5368 5361
5396 5388 5379 5373 5365 5359 5354 5352 5353 5356 5358 5367 5374 5375 5373 5375 5377 5375 5371 5366 5363 5360
5400 5393 5383 5377 5369 5364 5359 5357 5356 5355 5356 5360 5362 5362 5362 5363 5363 5362 5359 5358 5358 5357
5401 5396 5388 5379 5372 5370 5363 5359 5356 5352 5351 5348 5353 5355 5353 5352 5351 5350 5349 5348 5346 5350
5403 5399 5392 5385 5378 5371 5368 5362 5358 5352 5346 5338 5340 5345 5346 5345 5343 5344 5345 5344 5342 5342
5406 5400 5394 5390 5383 5374 5371 5365 5359 5352 5345 5335 5331 5338 5340 5340 5338 5335 5335 5337 5341 5338
5409 5403 5396 5392 5388 5382 5373 5365 5360 5355 5349 5343 5337 5337 5336 5337 5336 5335 5333 5331 5334 5337
5411 5406 5400 5393 5390 5385 5379 5371 5364 5357 5353 5349 5346 5345 5339 5336 5334 5332 5331 5332 5330 5330
5412 5407 5404 5398 5391 5388 5383 5377 5372 5364 5356 5352 5349 5348 5346 5341 5337 5334 5330 5327 5326 5327
5416 5411 5406 5403 5397 5395 5389 5384 5378 5372 5365 5358 5356 5352 5349 5345 5342 5338 5334 5330 5324 5322